Tracking 30923 objects as of 1-Jul-2025
HD Live streaming from Space Station
objects crossing your sky now

STARLINK-30258

Track STARLINK-30258 now!
10-day predictions
STARLINK-30258 is classified as:


NORAD ID: 57608
Int'l Code: 2023-119G
Perigee: 565.4 km
Apogee: 567.0 km
Inclination: 43.0 °
Period: 95.8 minutes
Semi major axis: 6937 km
RCS: Unknown
Launch date: August 11, 2023
Source: United States (US)
Launch site: AIR FORCE EASTERN TEST RANGE (AFETR)
Your satellite tracking list
HADES-C
Track 1 satellite(s)




NASA's NSSDC Master Catalog

Two Line Element Set (TLE):
1 57608U 23119G   25181.79280571 -.00000596  00000-0 -29074-4 0  9996
2 57608  43.0043  10.3855 0001158 246.5542 113.5179 15.02543980105197
Source of the keplerian elements: AFSPC